• In Belarus
  • List of Countries
  • For 7 days
  • Water Temperature
  • Satellite Maps
  • Weather Map
  • Weather Widgets
  • user-avatar
    Login

    Hourly Weather Duesseldorf

    Today, 22 April, Monday

    Time Temperature Precipitation Wind Pressure Humidity
    00:00 +17°C° 0 mm 3 mps 758 mmHg 54%
    01:00 +16°C° 0 mm 3 mps 757 mmHg 55%
    02:00 +15°C° 0 mm 2 mps 757 mmHg 56%
    03:00 +15°C° 0 mm 2 mps 757 mmHg 56%
    04:00 +15°C° 0 mm 2 mps 757 mmHg 56%
    05:00 +15°C° 0 mm 2 mps 756 mmHg 56%
    06:00 +15°C° 0 mm 2 mps 756 mmHg 55%
    07:00 +17°C° 0 mm 3 mps 756 mmHg 50%
    08:00 +19°C° 0 mm 3 mps 755 mmHg 44%
    09:00 +21°C° 0 mm 3 mps 755 mmHg 39%
    10:00 +23°C° 0 mm 4 mps 755 mmHg 35%
    11:00 +25°C° 0 mm 4 mps 754 mmHg 31%
    12:00 +26°C° 0 mm 4 mps 754 mmHg 27%
    13:00 +26°C° 0 mm 4 mps 753 mmHg 28%
    14:00 +26°C° 0 mm 4 mps 753 mmHg 28%
    15:00 +26°C° 0 mm 4 mps 752 mmHg 28%
    16:00 +25°C° 0 mm 4 mps 752 mmHg 33%
    17:00 +22°C° 0 mm 5 mps 752 mmHg 38%
    18:00 +21°C° 0 mm 5 mps 751 mmHg 43%
    19:00 +19°C° 0 mm 5 mps 751 mmHg 44%
    20:00 +17°C° 0 mm 5 mps 751 mmHg 45%
    21:00 +15°C° 0 mm 5 mps 752 mmHg 46%
    22:00 +15°C° 0 mm 4 mps 751 mmHg 48%
    23:00 +14°C° 0 mm 4 mps 751 mmHg 50%

    Tomorrow, 23 April, Tuesday

    Time Temperature Precipitation Wind Pressure Humidity
    00:00 +14°C° 0 mm 4 mps 751 mmHg 53%
    01:00 +13°C° 0 mm 4 mps 750 mmHg 54%
    02:00 +13°C° 0 mm 4 mps 750 mmHg 56%
    03:00 +12°C° 0 mm 3 mps 749 mmHg 58%
    04:00 +12°C° 0 mm 4 mps 749 mmHg 59%
    05:00 +12°C° 0 mm 4 mps 749 mmHg 59%
    06:00 +12°C° 0 mm 4 mps 749 mmHg 60%
    07:00 +14°C° 0 mm 4 mps 748 mmHg 58%
    08:00 +15°C° 0 mm 4 mps 748 mmHg 56%
    09:00 +18°C° 0 mm 4 mps 748 mmHg 54%
    10:00 +19°C° 0 mm 4 mps 747 mmHg 50%
    11:00 +21°C° 0 mm 4 mps 747 mmHg 47%
    12:00 +22°C° 0 mm 4 mps 746 mmHg 44%
    13:00 +22°C° 0 mm 4 mps 746 mmHg 45%
    14:00 +22°C° 0 mm 4 mps 746 mmHg 45%
    15:00 +22°C° 0 mm 4 mps 745 mmHg 46%
    16:00 +22°C° 0 mm 4 mps 745 mmHg 49%
    17:00 +21°C° 0 mm 3 mps 745 mmHg 52%
    18:00 +20°C° 0 mm 3 mps 745 mmHg 55%
    19:00 +19°C° 0 mm 3 mps 745 mmHg 59%
    20:00 +18°C° 0 mm 4 mps 745 mmHg 62%
    21:00 +17°C° 0 mm 4 mps 745 mmHg 66%
    22:00 +16°C° 0 mm 3 mps 745 mmHg 69%
    23:00 +16°C° 0 mm 3 mps 745 mmHg 71%

    Day after tomorrow, 24 April, Wednesday

    Time Temperature Precipitation Wind Pressure Humidity
    00:00 +15°C° 0 mm 2 mps 745 mmHg 74%
    01:00 +15°C° 0 mm 2 mps 745 mmHg 76%
    02:00 +15°C° 0 mm 2 mps 746 mmHg 78%
    03:00 +14°C° 0 mm 3 mps 746 mmHg 80%
    04:00 +16°C° 0 mm 3 mps 746 mmHg 77%
    05:00 +16°C° 0 mm 3 mps 747 mmHg 74%
    06:00 +17°C° 0 mm 4 mps 747 mmHg 72%
    07:00 +18°C° 0 mm 4 mps 747 mmHg 65%
    08:00 +20°C° 0 mm 5 mps 748 mmHg 59%
    09:00 +21°C° 0 mm 6 mps 748 mmHg 52%
    10:00 +22°C° 0 mm 6 mps 748 mmHg 48%
    11:00 +23°C° 0 mm 6 mps 748 mmHg 43%
    12:00 +24°C° 0 mm 6 mps 748 mmHg 38%
    13:00 +24°C° 0 mm 6 mps 748 mmHg 40%
    14:00 +24°C° 0 mm 6 mps 748 mmHg 41%
    15:00 +23°C° 0 mm 6 mps 748 mmHg 43%
    16:00 +21°C° 1.6 mm 6 mps 749 mmHg 54%
    17:00 +17°C° 1.6 mm 6 mps 750 mmHg 65%
    18:00 +15°C° 1.6 mm 5 mps 750 mmHg 76%
    19:00 +14°C° 1.4 mm 5 mps 751 mmHg 77%
    20:00 +14°C° 1.4 mm 4 mps 752 mmHg 77%
    21:00 +13°C° 1.4 mm 3 mps 753 mmHg 77%
    22:00 +12°C° 0 mm 3 mps 753 mmHg 77%
    23:00 +12°C° 0 mm 3 mps 753 mmHg 78%

    25 April, Thursday

    Time Temperature Precipitation Wind Pressure Humidity
    00:00 +11°C° 0 mm 3 mps 753 mmHg 78%
    01:00 +11°C° 0 mm 3 mps 753 mmHg 79%
    02:00 +11°C° 0 mm 3 mps 753 mmHg 80%
    03:00 +11°C° 0 mm 3 mps 753 mmHg 80%
    04:00 +11°C° 0 mm 4 mps 753 mmHg 76%
    05:00 +12°C° 0 mm 5 mps 753 mmHg 72%
    06:00 +12°C° 0 mm 5 mps 753 mmHg 68%
    07:00 +14°C° 0 mm 6 mps 753 mmHg 61%
    08:00 +16°C° 0 mm 7 mps 753 mmHg 55%
    09:00 +17°C° 0 mm 7 mps 754 mmHg 48%
    10:00 +18°C° 0 mm 7 mps 754 mmHg 44%
    11:00 +20°C° 0 mm 7 mps 754 mmHg 41%
    12:00 +21°C° 0 mm 7 mps 754 mmHg 37%
    13:00 +21°C° 0 mm 7 mps 754 mmHg 40%
    14:00 +21°C° 0 mm 6 mps 754 mmHg 43%
    15:00 +21°C° 0 mm 5 mps 754 mmHg 46%
    16:00 +20°C° 0 mm 5 mps 754 mmHg 49%
    17:00 +19°C° 0 mm 5 mps 754 mmHg 52%
    18:00 +19°C° 0 mm 4 mps 755 mmHg 55%
    19:00 +17°C° 0 mm 4 mps 755 mmHg 59%
    20:00 +16°C° 0 mm 3 mps 756 mmHg 63%
    21:00 +14°C° 0 mm 3 mps 756 mmHg 68%
    22:00 +13°C° 0.4 mm 3 mps 756 mmHg 71%
    23:00 +13°C° 0.4 mm 3 mps 756 mmHg 75%

    26 April, Friday

    Time Temperature Precipitation Wind Pressure Humidity
    00:00 +12°C° 0.4 mm 3 mps 756 mmHg 78%
    01:00 +13°C° 0.7 mm 2 mps 756 mmHg 79%
    02:00 +12°C° 0.7 mm 2 mps 757 mmHg 80%
    03:00 +12°C° 0.7 mm 2 mps 757 mmHg 80%
    04:00 +12°C° 0.1 mm 2 mps 757 mmHg 79%
    05:00 +12°C° 0.1 mm 2 mps 757 mmHg 79%
    06:00 +11°C° 0.1 mm 3 mps 757 mmHg 78%
    07:00 +11°C° 0 mm 3 mps 758 mmHg 74%
    08:00 +12°C° 0 mm 3 mps 758 mmHg 69%
    09:00 +13°C° 0 mm 3 mps 758 mmHg 65%
    10:00 +14°C° 0 mm 4 mps 758 mmHg 60%
    11:00 +15°C° 0 mm 4 mps 758 mmHg 55%
    12:00 +17°C° 0 mm 4 mps 758 mmHg 51%
    13:00 +17°C° 0 mm 4 mps 758 mmHg 49%
    14:00 +17°C° 0 mm 4 mps 758 mmHg 48%
    15:00 +18°C° 0 mm 4 mps 758 mmHg 47%
    16:00 +17°C° 0.1 mm 4 mps 759 mmHg 52%
    17:00 +15°C° 0.1 mm 4 mps 759 mmHg 56%
    18:00 +14°C° 0.1 mm 4 mps 760 mmHg 61%
    19:00 +13°C° 0 mm 4 mps 760 mmHg 65%
    20:00 +13°C° 0 mm 3 mps 761 mmHg 68%
    21:00 +12°C° 0 mm 3 mps 761 mmHg 72%
    22:00 +11°C° 0 mm 3 mps 761 mmHg 73%
    23:00 +11°C° 0 mm 3 mps 761 mmHg 75%

    27 April, Saturday

    Time Temperature Precipitation Wind Pressure Humidity
    00:00 +10°C° 0 mm 3 mps 761 mmHg 76%
    01:00 +10°C° 0 mm 3 mps 761 mmHg 75%
    02:00 +10°C° 0 mm 4 mps 761 mmHg 74%
    03:00 +10°C° 0 mm 4 mps 761 mmHg 74%
    04:00 +10°C° 0.3 mm 4 mps 761 mmHg 75%
    05:00 +10°C° 0.3 mm 4 mps 761 mmHg 77%
    06:00 +10°C° 0.3 mm 4 mps 761 mmHg 79%
    07:00 +10°C° 0.3 mm 4 mps 761 mmHg 79%
    08:00 +11°C° 0.3 mm 4 mps 761 mmHg 79%
    09:00 +11°C° 0.3 mm 4 mps 761 mmHg 79%
    10:00 +12°C° 0.4 mm 4 mps 761 mmHg 76%
    11:00 +12°C° 0.4 mm 4 mps 761 mmHg 73%
    12:00 +12°C° 0.4 mm 4 mps 761 mmHg 70%
    13:00 +12°C° 0.5 mm 5 mps 761 mmHg 70%
    14:00 +10°C° 0.5 mm 5 mps 761 mmHg 69%
    15:00 +10°C° 0.5 mm 5 mps 761 mmHg 69%
    16:00 +11°C° 0 mm 4 mps 762 mmHg 66%
    17:00 +11°C° 0 mm 3 mps 762 mmHg 62%
    18:00 +12°C° 0 mm 2 mps 762 mmHg 58%
    19:00 +10°C° 0 mm 3 mps 763 mmHg 61%
    20:00 +10°C° 0 mm 3 mps 763 mmHg 63%
    21:00 +9°C° 0 mm 3 mps 764 mmHg 66%
    22:00 +9°C° 0 mm 3 mps 763 mmHg 67%
    23:00 +8°C° 0 mm 3 mps 763 mmHg 69%
    Show more